Lapse_Rate
3.8 3.5 3.2 2.6 2.0 1.5 2.4 4.4 6.5 2.9 2.8 6.8 6.9 6.5 6.5 6.5 6.6 6.7 6.5 6.5 6.5 6.5 6.5 6.5 6.5 6.5 6.5 7.0 6.8 6.5 6.5 6.5 6.5 6.5 6.5 6.5 6.5 6.5 6.5 6.5 6.5 6.5 6.5 6.5
3.9 3.5 3.3 2.9 2.5 2.0 2.9 6.0 5.7 3.6 4.5 6.5 6.5 6.6 6.5 6.7 6.5 6.5 6.5 6.5 6.5 6.5 6.5 6.5 6.5 6.5 6.8 6.9 6.6 6.5 6.5 6.5 6.5 6.5 6.5 6.5 6.5 6.5 6.5 6.5 6.5 6.5 6.5 6.5
4.1 3.5 3.2 2.9 2.7 2.3 2.5 5.5 6.5 6.4 6.1 5.2 6.5 6.5 6.5 6.5 6.4 6.6 6.8 6.5 6.6 6.5 6.5 6.5 6.5 6.5 6.5 6.9 6.8 6.6 6.7 6.5 6.5 6.5 6.5 6.5 6.5 6.5 6.5 6.5 6.5 6.5 6.5 6.5
4.0 3.4 3.3 2.5 2.3 2.3 3.3 4.9 6.5 5.7 6.5 6.6 6.5 6.5 6.5 6.5 6.5 6.7 6.9 6.5 6.5 6.5 6.5 6.5 6.5 6.5 6.5 6.7 6.9 6.8 6.5 6.5 6.5 6.5 6.5 6.5 6.5 6.5 6.5 6.5 6.5 6.5 6.5 6.5
5.1 4.7 4.0 3.2 1.9 1.9 4.1 6.2 7.0 6.1 7.0 6.9 6.5 6.5 6.5 6.5 6.5 6.5 6.5 6.5 6.5 6.5 6.5 6.5 6.5 6.5 6.5 6.5 6.5 6.5 6.5 6.5 6.5 6.5 6.5 6.5 6.5 6.5 6.5 6.5 6.5 6.5 6.5 6.5
6.1 5.8 5.3 5.0 3.6 2.6 4.1 3.0 3.6 6.1 6.7 6.6 6.5 6.5 6.5 6.5 6.5 6.5 6.8 6.6 6.5 6.5 6.5 6.8 6.6 7.0 7.0 6.6 6.5 6.5 6.5 6.5 6.5 6.5 6.5 6.5 6.5 6.5 6.5 6.5 6.5 6.5 6.5 6.5
7.3 6.9 6.5 6.2 5.8 5.5 4.7 5.0 5.2 7.1 6.5 6.5 6.5 6.5 6.6 6.5 6.5 6.5 6.7 6.6 6.5 6.3 4.8 5.6 6.8 7.1 6.9 6.9 6.6 6.8 6.5 6.5 6.5 6.5 6.5 6.5 6.5 6.5 6.5 6.5 6.5 6.5 6.5 6.5
7.9 7.5 7.1 7.0 6.9 6.3 5.3 5.3 5.5 7.3 6.5 6.7 6.5 6.5 6.5 6.7 6.7 6.5 6.6 6.5 5.6 5.2 6.1 6.5 6.5 6.5 6.5 6.5 6.5 6.5 6.5 6.5 6.5 6.5 6.5 6.5 6.5 6.5 6.5 6.5 6.5 6.5 6.5 6.5
8.2 8.2 8.4 8.1 7.9 7.5 6.3 6.1 5.3 5.5 6.9 6.6 6.3 6.7 6.8 6.5 6.5 6.5 6.7 5.1 4.6 5.6 6.5 6.5 6.5 6.5 6.5 6.5 6.5 6.5 6.5 6.5 6.5 6.5 6.5 6.5 6.5 6.5 6.9 6.6 6.5 6.6 6.8 6.6
8.1 8.5 8.4 8.5 8.3 8.5 7.4 7.5 7.3 6.8 6.7 6.2 6.7 6.7 6.7 6.9 6.8 6.5 6.8 6.7 6.4 5.7 6.5 6.5 6.5 6.5 6.5 6.5 6.5 6.5 6.5 6.5 6.5 6.5 6.5 6.5 6.5 6.6 7.0 6.5 6.5 6.9 7.1 7.1
8.1 8.1 8.4 8.7 8.7 8.6 7.8 7.9 7.5 8.1 7.5 6.3 7.6 7.3 7.3 7.2 7.0 6.5 6.8 6.6 6.6 6.6 6.5 6.5 6.5 6.5 6.5 6.5 6.5 6.5 6.5 6.5 6.5 6.5 6.5 6.5 6.9 6.7 6.5 6.7 7.3 7.3 7.4 7.4
8.3 8.1 7.9 7.8 8.0 8.5 8.5 8.2 8.5 8.8 8.0 7.6 8.1 8.3 8.7 8.0 7.6 7.3 6.5 6.9 6.8 6.8 6.5 6.5 6.5 6.5 6.5 6.5 6.5 6.5 6.5 6.5 6.5 6.5 6.5 6.7 7.2 7.0 7.5 7.7 7.4 7.2 6.7 5.8
8.3 8.6 8.6 7.5 7.6 7.5 7.5 7.5 7.5 7.8 8.2 8.0 8.0 7.5 7.2 7.4 6.5 6.3 6.8 7.1 7.0 6.3 6.6 6.7 6.5 6.5 6.5 6.5 6.5 6.5 6.5 6.7 6.5 6.5 6.5 6.6 6.9 6.1 5.5 5.6 5.5 5.9 7.7 7.9
8.9 8.2 8.5 8.6 8.4 8.0 8.3 7.7 7.4 7.3 7.8 6.8 7.3 8.3 8.0 7.2 7.4 6.8 6.1 6.2 6.6 6.6 6.6 6.8 6.5 6.5 6.8 6.5 6.5 6.5 6.7 6.6 6.5 6.5 6.6 6.7 6.7 6.6 6.2 7.3 8.1 8.2 8.3 8.2
9.0 8.6 8.3 8.4 8.5 8.5 8.3 7.5 6.8 7.0 7.2 6.8 7.1 7.2 8.0 7.1 7.2 7.2 7.4 7.4 6.7 6.3 6.8 6.6 6.5 6.9 6.6 6.7 6.5 6.5 6.7 6.5 6.5 6.5 6.8 6.7 6.9 6.8 6.7 7.7 7.9 8.1 7.8 7.4
9.2 9.2 8.8 8.6 8.8 8.3 8.2 7.6 6.6 6.1 6.2 7.0 6.5 7.0 6.9 7.3 7.5 7.4 7.8 7.8 7.1 6.4 6.7 6.8 6.6 5.6 6.8 6.5 6.5 6.7 7.0 7.0 6.8 6.8 6.5 6.7 6.9 7.8 8.4 7.9 7.8 7.4 7.4 7.1
9.2 9.0 9.1 8.8 8.2 8.0 8.2 7.9 7.9 7.1 7.1 7.2 6.6 6.6 7.3 6.6 6.6 6.6 6.4 7.1 6.8 6.4 6.5 7.1 6.9 7.1 6.9 6.5 6.5 6.8 6.9 6.8 6.5 6.8 7.2 7.0 7.4 7.1 6.5 6.1 5.8 6.2 6.2 6.6
9.4 9.2 8.7 7.9 7.7 7.6 8.0 7.7 7.5 7.3 6.9 6.8 6.5 6.5 7.0 6.4 6.9 6.8 6.1 6.6 6.3 6.8 6.8 6.6 6.7 6.9 6.8 6.5 6.7 7.0 7.0 7.0 7.2 6.9 7.0 6.8 6.8 6.6 6.6 7.0 6.9 6.9 7.0 6.9
8.4 7.8 7.1 6.7 7.0 7.4 7.4 7.3 7.1 6.6 6.9 6.8 6.7 6.5 6.5 7.0 7.1 6.8 6.8 6.6 6.5 6.7 6.5 6.6 6.8 6.5 6.5 6.6 6.9 7.0 7.1 7.2 7.0 7.6 6.8 6.7 6.6 6.9 6.7 6.8 6.7 6.7 7.0 7.1
6.9 6.1 7.1 7.0 6.5 6.0 6.4 7.4 7.8 7.4 6.9 7.4 6.6 7.3 6.5 7.0 7.2 6.7 6.8 6.9 6.5 6.5 6.6 7.1 6.5 6.5 7.0 6.9 6.9 6.9 7.0 7.1 6.9 6.9 7.0 7.1 7.5 7.1 6.7 6.6 6.8 6.8 6.8 6.5
6.5 6.0 5.7 6.0 5.2 6.8 6.3 6.5 6.6 7.0 6.6 7.2 7.2 7.1 6.6 7.0 6.5 6.5 7.1 6.5 6.5 6.5 6.5 6.5 6.5 6.5 6.8 6.7 6.8 7.3 7.1 6.9 6.6 6.8 6.7 6.7 6.6 6.5 6.4 6.4 6.5 6.6 6.6 6.6
6.8 7.1 5.9 5.5 4.7 4.7 6.4 6.5 6.7 6.5 6.5 7.0 6.8 7.1 7.2 7.4 7.2 6.7 6.8 6.5 6.5 6.5 6.8 6.5 6.5 6.5 7.2 6.9 6.8 6.5 6.4 6.3 6.2 6.4 6.2 6.4 6.5 6.6 6.3 6.4 6.4 6.4 6.4 6.2
5.7 5.5 4.0 5.0 5.1 6.5 6.5 6.5 6.5 6.5 6.9 7.1 7.1 6.6 6.4 6.4 6.4 6.8 6.5 6.5 6.5 6.9 6.5 6.5 6.5 7.0 7.4 6.9 6.8 6.7 6.6 6.3 6.1 6.0 6.1 6.0 6.2 6.4 6.6 6.5 6.9 6.9 6.8 7.0
3.8 3.9 6.5 6.5 6.5 6.5 6.5 6.5 6.5 7.2 7.2 7.2 7.0 6.9 6.7 6.4 6.6 6.6 6.5 6.5 6.6 6.5 6.5 6.5 6.5 7.2 6.9 6.6 6.5 6.3 6.4 6.6 6.5 6.6 6.6 6.7 7.0 7.0 6.9 7.3 7.3 7.3 7.1 7.3
3.4 3.4 6.5 6.5 7.0 6.8 6.0 5.9 6.7 7.2 7.3 6.3 6.6 6.3 6.8 6.5 6.5 6.5 6.5 6.5 6.5 6.5 6.5 6.5 7.2 7.2 6.8 6.7 6.9 7.0 7.4 7.3 6.0 6.2 5.7 5.7 5.9 6.3 6.4 6.8 7.0 7.2 7.2 7.3
3.7 5.4 6.4 7.0 6.8 6.7 6.3 5.7 6.6 6.2 5.9 5.6 5.3 6.5 6.5 6.5 6.5 6.5 6.5 6.5 6.5 6.5 6.6 7.3 6.9 6.1 6.1 6.6 6.9 7.0 7.3 7.2 7.2 7.8 7.9 7.8 8.0 7.8 7.1 6.8 6.9 6.8 6.8 6.4
5.2 6.8 7.1 7.1 7.1 7.0 7.1 6.6 7.1 5.8 6.4 6.5 6.7 6.5 6.5 6.6 6.5 6.5 6.5 6.5 6.5 7.1 7.3 7.4 7.0 6.7 6.9 5.9 6.0 6.9 6.7 7.0 8.0 8.1 7.7 7.0 7.1 6.9 6.6 6.9 7.3 7.2 7.2 6.9
Wind_Speed
24 26 28 28 29 26 2 0 2 2 2 2 1 3 4 2 3 1 2 2 3 6 7 5 3 5 4 4 6 6 6 2 4 1 1 2 1 3 5 3 5 1 1 6
24 25 27 29 28 22 3 2 1 1 2 3 3 2 2 3 5 4 4 5 4 3 6 4 4 3 2 3 3 4 5 4 4 4 3 1 4 5 3 4 2 7 4 4
24 25 27 29 30 25 1 2 2 2 1 1 2 3 4 3 3 3 3 2 2 3 4 4 6 6 3 2 2 3 1 2 5 1 4 5 5 8 11 6 4 6 7 3
22 24 27 30 33 28 2 0 1 1 2 4 4 2 2 3 5 3 4 3 9 6 5 5 5 4 4 2 3 3 3 3 1 2 1 2 3 7 14 12 9 7 10 8
20 22 26 29 32 28 1 3 2 1 3 2 3 5 5 6 3 7 5 6 4 10 5 5 7 8 7 4 4 6 2 3 2 2 2 5 7 12 13 18 17 18 20 22
19 21 22 25 29 18 3 2 1 3 1 2 3 4 4 5 4 7 3 9 5 9 12 5 1 3 3 3 7 9 5 5 3 3 3 1 8 19 18 12 10 17 14 11
18 19 20 21 22 19 2 1 2 3 5 3 4 2 3 5 6 2 2 4 4 2 7 7 6 5 4 5 3 4 7 6 3 2 3 6 6 2 2 18 10 17 9 3
16 17 17 18 19 20 2 1 2 2 5 5 6 9 6 4 2 3 4 5 1 7 2 2 2 1 2 3 1 5 2 5 4 4 7 7 13 6 7 8 8 11 9 8
13 15 16 16 16 17 3 1 2 2 3 6 5 4 3 4 4 2 3 2 2 2 2 3 6 7 4 5 2 4 4 2 7 4 5 7 3 4 1 3 8 5 10 13
15 14 13 13 15 14 2 2 8 3 3 2 2 3 3 1 1 2 1 3 3 0 4 6 6 8 2 6 7 6 5 4 13 12 9 6 4 6 4 6 2 10 12 11
14 14 14 13 12 12 3 1 7 3 4 8 5 6 5 5 2 3 2 3 1 2 6 6 5 6 8 5 5 7 10 10 6 6 7 10 2 5 6 5 8 12 11 9
14 14 13 14 16 15 7 1 1 4 4 6 13 13 12 13 10 3 4 3 1 2 5 3 2 3 3 5 7 2 6 8 5 9 3 5 3 9 6 5 11 7 8 7
18 15 10 8 9 13 9 3 1 2 4 6 7 7 6 2 4 4 3 2 4 4 0 1 2 6 4 6 7 6 5 3 4 4 5 8 7 8 5 6 8 8 9 10
17 15 14 13 11 11 9 4 1 2 3 4 3 4 3 5 7 5 5 8 5 3 1 2 4 5 4 4 5 7 3 5 7 3 6 10 7 8 9 12 13 12 10 9
16 15 16 15 14 14 10 5 1 1 2 3 4 9 7 3 3 6 10 10 5 2 2 3 3 2 3 2 1 4 6 4 2 2 6 8 8 9 11 13 11 8 8 7
15 16 16 15 15 12 2 2 3 4 3 2 3 2 3 1 5 8 9 7 5 2 1 2 1 1 2 3 3 8 10 11 7 4 14 15 13 10 9 10 8 6 6 4
16 16 17 17 15 5 3 3 1 8 4 2 4 3 1 3 3 2 2 5 3 2 2 2 1 3 4 3 3 6 11 12 12 10 12 11 8 5 7 8 6 5 4 3
18 19 18 16 9 3 2 2 7 5 2 2 2 3 2 4 3 3 3 2 0 2 1 1 3 3 4 5 7 10 11 13 15 14 13 9 7 8 8 6 6 5 5 5
19 16 11 2 2 1 2 16 4 1 1 2 1 2 3 5 3 2 1 2 2 2 3 4 3 3 5 6 8 12 11 9 5 6 8 8 9 7 7 6 6 6 7 7
11 4 2 1 1 14 9 1 2 2 2 2 2 4 2 4 3 2 3 2 2 1 3 3 5 5 7 6 8 8 7 7 8 8 9 9 7 6 6 5 5 6 8 9
3 4 2 3 11 1 2 1 2 1 1 2 3 3 4 4 3 2 3 2 2 2 4 3 3 3 6 10 9 7 7 7 8 7 5 5 5 7 8 8 8 8 9 9
1 2 1 2 4 2 3 2 2 3 3 4 4 4 3 3 3 2 4 2 2 4 3 3 3 4 7 7 6 6 7 8 8 6 6 6 7 7 7 8 9 9 10 10
2 2 3 3 3 6 4 4 3 2 4 4 4 3 3 3 5 3 3 4 4 1 3 3 4 5 6 7 7 7 8 9 9 10 9 10 9 9 8 9 9 10 10 10
3 3 5 3 3 3 3 4 3 3 3 5 3 2 3 2 3 2 4 3 1 3 3 4 3 7 7 7 7 9 10 9 9 9 9 9 9 9 9 9 8 9 10 10
3 2 3 4 2 2 2 2 2 4 4 3 1 1 2 4 3 4 1 4 4 4 3 3 4 6 7 7 7 8 8 8 7 7 7 8 8 9 10 9 9 9 9 10
3 4 2 2 1 2 3 3 4 3 4 1 2 2 3 5 2 4 4 2 4 3 2 3 5 6 6 6 7 8 9 9 9 8 9 9 9 9 10 10 8 8 9 10
3 3 4 3 2 3 3 3 5 5 2 3 2 5 3 1 3 3 3 3 2 3 4 4 6 6 7 6 6 8 10 9 9 9 10 10 9 9 8 9 10 10 10 8
Wind_Direction
10 6 4 3 0 354 47 106 250 32 284 194 251 236 201 162 170 211 276 242 203 186 167 185 229 224 310 161 174 185 176 140 152 150 67 331 277 212 207 214 183 89 348 275
10 6 4 2 360 3 318 248 257 110 218 228 216 244 267 212 160 204 190 225 236 209 178 183 200 183 116 159 204 184 178 203 149 165 178 177 221 194 178 107 116 198 175 249
10 7 4 1 357 353 258 277 258 161 200 148 243 213 223 229 208 206 191 200 167 166 197 230 179 185 160 157 194 70 213 234 266 239 82 117 189 190 196 196 182 156 224 261
12 9 6 3 357 352 272 348 281 353 215 206 214 179 197 197 208 222 199 209 224 196 187 175 207 166 156 177 170 160 214 248 267 290 227 217 247 181 190 204 205 208 265 211
14 12 10 6 3 349 73 314 321 194 273 244 205 183 208 211 189 176 211 222 206 202 214 214 205 168 195 183 170 190 190 185 182 264 105 235 264 243 218 224 237 245 261 271
12 11 13 11 10 11 360 24 306 288 240 202 196 213 209 206 169 199 249 217 166 207 227 188 106 126 82 157 167 173 164 147 154 249 67 60 278 246 219 220 222 226 237 247
6 7 11 13 16 21 307 335 300 274 263 240 227 253 213 229 212 241 185 187 208 151 119 119 116 99 89 161 160 165 157 166 172 240 118 236 253 75 251 215 227 215 239 223
2 2 3 7 10 10 351 310 300 276 265 270 276 256 244 268 243 223 195 197 334 147 107 118 193 241 334 205 170 214 239 166 190 221 217 298 258 209 188 187 238 218 225 158
357 358 356 358 1 6 4 346 306 278 270 234 303 277 235 246 222 229 204 93 115 120 167 171 211 219 198 203 185 18 175 319 216 166 234 248 74 132 146 145 248 175 165 151
343 343 346 349 349 359 45 300 0 290 265 271 306 268 286 329 263 252 143 166 166 235 180 205 208 235 214 211 193 168 155 195 220 221 249 261 137 125 139 209 287 141 141 136
338 335 330 331 337 343 3 226 17 9 304 296 296 343 326 317 280 255 108 149 179 157 199 208 204 224 210 232 226 185 179 176 191 203 234 265 113 125 211 103 117 125 118 116
326 333 334 338 339 338 347 289 247 308 251 273 305 293 285 270 297 278 222 316 126 236 214 218 216 205 182 215 241 175 230 222 204 210 212 97 97 102 98 136 129 114 115 117
332 316 319 331 329 327 336 297 278 248 265 276 251 237 216 33 12 337 263 215 267 227 95 234 234 237 168 229 230 214 217 176 228 184 145 127 96 68 68 83 106 109 116 117
330 334 328 322 304 294 293 269 243 242 264 274 298 335 265 193 214 258 277 310 310 331 314 230 227 226 197 245 264 247 318 179 172 130 89 90 84 101 100 102 104 108 107 113
314 322 327 320 318 315 318 278 270 325 231 301 285 311 282 283 282 257 223 219 237 245 206 201 216 219 173 178 166 44 345 346 255 98 124 85 99 100 110 109 108 106 112 110
316 310 313 316 317 331 306 270 170 157 183 298 294 280 253 232 297 281 245 214 221 195 257 234 169 359 259 165 70 10 28 43 45 77 76 94 103 98 100 99 103 97 92 79
317 312 308 311 311 294 243 270 42 215 215 274 287 281 142 314 281 289 268 203 203 184 196 205 104 43 47 43 74 56 39 50 53 65 90 84 87 81 67 76 65 62 65 49
318 317 314 314 317 332 242 355 359 310 239 211 268 279 289 16 327 318 350 345 208 134 157 100 58 40 51 64 40 56 43 54 55 61 63 73 83 65 57 60 37 25 7 352
322 316 315 346 32 347 304 311 325 15 293 287 248 287 314 346 9 311 326 342 35 20 40 42 51 51 54 79 68 58 42 45 49 53 60 62 60 49 36 21 6 345 331 323
333 8 4 298 30 312 308 81 329 28 348 301 342 327 312 335 328 32 326 2 39 79 56 93 54 72 98 85 68 58 41 27 25 31 24 14 20 13 360 343 326 316 316 317
18 7 337 320 323 340 27 62 33 22 10 6 356 342 324 24 336 1 15 354 358 66 27 71 68 72 53 53 64 45 36 40 42 45 34 9 344 340 335 330 328 323 321 318
354 316 30 338 19 38 63 6 344 6 36 2 335 336 319 332 321 334 5 30 24 67 344 82 82 56 42 38 33 37 37 29 25 18 4 354 340 334 321 316 320 323 320 319
67 48 43 357 343 39 40 11 6 17 353 359 338 318 344 336 17 62 13 45 57 285 46 66 60 44 26 16 18 21 18 11 7 358 351 345 338 333 330 324 322 319 314 312
59 40 20 33 21 36 29 21 12 4 327 337 329 311 17 356 35 356 60 28 323 66 57 66 37 7 360 5 7 4 353 352 344 336 332 328 325 320 318 316 312 310 305 307
68 50 47 46 6 31 355 328 328 353 318 335 290 58 1 16 62 26 48 42 54 47 55 55 10 351 352 352 350 343 336 334 324 323 315 310 309 310 309 313 312 308 304 306
63 51 42 5 40 29 16 0 345 341 336 215 42 47 54 44 20 46 32 53 48 53 23 7 345 345 341 338 338 336 329 328 327 329 329 323 322 319 313 309 306 306 304 302
38 34 19 10 39 30 8 344 337 325 338 31 18 48 37 294 47 48 16 42 23 351 348 344 337 331 331 328 327 334 332 330 331 331 328 322 318 315 311 313 321 316 308 296